Home > Weather > Joinville > Past weeks

Flag for Brazil Past Weather in Joinville, Santa Catarina, Brazil — Yesterday and Last 2 Weeks

Now
52 °F

Clear.


Feels Like: 52 °F
Forecast: 55 / 74 °F
Wind: No wind

Location: Curitiba Aeroporto

Current Time: Jul 1, 2016 at 1:32:40 AM

Latest Report: Jul 1, 2016 at 1:00 AM


Visibility: 10 mi

Pressure: 30.33 "Hg

Humidity: 94%

Dew Point: 50 °F

Location of JoinvilleLocation

Past Weather in Joinville — Graph

°F

Joinville Temperature Yesterday

Maximum temperature yesterday: 68 °F (at 12:00 PM)
Minimum temperature yesterday: 45 °F (at 6:00 AM)
Average temperature yesterday: 57 °F

High & Low Weather Summary for the Past Weeks

 TemperatureHumidityPressure
High75 °F (Jun 16, 2:00 PM)100% (Jun 16, 1:00 AM)30.42 "Hg (Jun 16, 1:00 AM)
Low41 °F (Jun 28, 6:00 AM)34% (Jun 16, 2:00 PM)30.09 "Hg (Jun 17, 3:00 PM)
Average54 °F88%30.28 "Hg
* Reported Jun 16 12:00 AM — Jul 1 12:00 AM, Joinville, Weather by CustomWeather, © 2016

Note: Actual official high and low records may vary slightly from our data, if they occured in-between our weather recording intervals... More about our weather records

Advertising

Joinville Weather History for the Previous 24 Hours

Scroll right to see more
 ConditionsComfort  
Time TempWeatherWind HumidityBarometerVisibility
12:00 AM
Fri, Jul 1
55 °FClear.No wind94%30.33 "Hg10 mi
11:00 PM
Thu, Jun 30
55 °FClear.5 mph94%30.33 "Hg10 mi
10:00 PM55 °FClear.3 mph94%30.33 "Hg10 mi
9:00 PM59 °FClear.2 mph88%30.33 "Hg10 mi
8:00 PM59 °FClear.5 mph88%30.30 "Hg10 mi
7:00 PM63 °FClear.3 mph83%30.33 "Hg10 mi
6:00 PM64 °FClear.2 mph68%30.30 "Hg10 mi
5:00 PM66 °FClear.2 mph60%30.30 "Hg10 mi
4:00 PM68 °FSunny.5 mph60%30.27 "Hg10 mi
3:00 PM68 °FSunny.5 mph64%30.27 "Hg10 mi
2:00 PM68 °FSunny.5 mph60%30.30 "Hg10 mi
1:00 PM68 °FPassing clouds.6 mph60%30.33 "HgN/A
12:00 PM68 °FSunny.9 mph60%30.36 "Hg10 mi
11:00 AM66 °FSunny.8 mph60%30.36 "Hg10 mi
10:00 AM61 °FSunny.5 mph72%30.36 "Hg10 mi
9:00 AM54 °FPassing clouds.2 mph94%30.36 "Hg4 mi
8:00 AM48 °FFog.2 mph100%30.33 "Hg3 mi
7:00 AM46 °FFog.2 mph100%30.30 "Hg2 mi
6:00 AM45 °FFog.2 mph100%30.30 "Hg2 mi
5:55 AM46 °FFog.2 mph93%30.30 "Hg2 mi
5:00 AM48 °FClear.No wind94%30.27 "Hg10 mi
3:00 AM48 °FClear.No wind100%30.30 "Hg10 mi
2:00 AM48 °FClear.5 mph100%30.30 "Hg10 mi
1:00 AM48 °FClear.No wind100%30.30 "Hg10 mi
Weather by CustomWeather, © 2016

See weather overviewHow to use our weather pages